When you browse on this site, cookies collect data to enhance your experience and personalize the content and advertising you see.
Visit our Privacy Policy to learn more. By continuing to use the site, you agree to this use of cookies and data.
  • în România
  • Lista ţărilor
  • Pe 7 zile
  • Temperatura apei
  • Meteo pe hartă
  • Widget-uri
  • user-avatar
    Intrare

    Meteo pe oră la Dumfries

    Astăzi, 22 Octombrie, Marţi

    Timp Temperatura Precipitaţii Vânt Presiune Umiditate
    00:00 +6°C° 0 mm 4 m/s 760 mmHg 87%
    01:00 +6°C° 0 mm 4 m/s 760 mmHg 87%
    02:00 +6°C° 0 mm 4 m/s 759 mmHg 88%
    03:00 +6°C° 0 mm 4 m/s 759 mmHg 89%
    04:00 +7°C° 0 mm 4 m/s 759 mmHg 90%
    05:00 +7°C° 0 mm 4 m/s 759 mmHg 90%
    06:00 +7°C° 0 mm 4 m/s 758 mmHg 91%
    07:00 +8°C° 0 mm 5 m/s 758 mmHg 89%
    08:00 +8°C° 0 mm 5 m/s 758 mmHg 88%
    09:00 +8°C° 0 mm 5 m/s 758 mmHg 87%
    10:00 +9°C° 0 mm 5 m/s 759 mmHg 85%
    11:00 +9°C° 0 mm 5 m/s 759 mmHg 83%
    12:00 +10°C° 0 mm 5 m/s 759 mmHg 81%
    13:00 +10°C° 0 mm 5 m/s 758 mmHg 82%
    14:00 +10°C° 0 mm 5 m/s 758 mmHg 82%
    15:00 +10°C° 0 mm 5 m/s 757 mmHg 83%
    16:00 +9°C° 0 mm 5 m/s 757 mmHg 84%
    17:00 +9°C° 0 mm 5 m/s 757 mmHg 85%
    18:00 +8°C° 0 mm 4 m/s 758 mmHg 86%
    19:00 +8°C° 0 mm 5 m/s 757 mmHg 86%
    20:00 +9°C° 0 mm 5 m/s 757 mmHg 86%
    21:00 +9°C° 0 mm 5 m/s 757 mmHg 85%
    22:00 +9°C° 0 mm 5 m/s 756 mmHg 85%
    23:00 +8°C° 0 mm 4 m/s 756 mmHg 85%

    Mâine, 23 Octombrie, Miercuri

    Timp Temperatura Precipitaţii Vânt Presiune Umiditate
    00:00 +8°C° 0 mm 4 m/s 756 mmHg 85%
    01:00 +8°C° 0 mm 4 m/s 755 mmHg 85%
    02:00 +8°C° 0 mm 4 m/s 755 mmHg 86%
    03:00 +8°C° 0 mm 4 m/s 754 mmHg 86%
    04:00 +8°C° 0 mm 4 m/s 754 mmHg 85%
    05:00 +8°C° 0 mm 4 m/s 754 mmHg 85%
    06:00 +8°C° 0 mm 5 m/s 754 mmHg 84%
    07:00 +8°C° 0 mm 5 m/s 753 mmHg 83%
    08:00 +9°C° 0 mm 5 m/s 753 mmHg 83%
    09:00 +9°C° 0 mm 5 m/s 753 mmHg 83%
    10:00 +9°C° 0 mm 5 m/s 752 mmHg 80%
    11:00 +10°C° 0 mm 6 m/s 752 mmHg 78%
    12:00 +10°C° 0 mm 6 m/s 751 mmHg 75%
    13:00 +10°C° 0 mm 6 m/s 751 mmHg 76%
    14:00 +10°C° 0 mm 6 m/s 750 mmHg 76%
    15:00 +10°C° 0 mm 6 m/s 749 mmHg 77%
    16:00 +10°C° 0 mm 6 m/s 748 mmHg 78%
    17:00 +9°C° 0 mm 6 m/s 748 mmHg 79%
    18:00 +9°C° 0 mm 5 m/s 747 mmHg 80%
    19:00 +9°C° 0.6 mm 6 m/s 747 mmHg 84%
    20:00 +9°C° 0.6 mm 6 m/s 746 mmHg 87%
    21:00 +9°C° 0.6 mm 6 m/s 746 mmHg 90%
    22:00 +9°C° 0.5 mm 6 m/s 746 mmHg 91%
    23:00 +10°C° 0.5 mm 5 m/s 746 mmHg 91%

    Poimâine, 24 Octombrie, Joi

    Timp Temperatura Precipitaţii Vânt Presiune Umiditate
    00:00 +10°C° 0.5 mm 5 m/s 745 mmHg 92%
    01:00 +10°C° 0.1 mm 4 m/s 745 mmHg 93%
    02:00 +10°C° 0.1 mm 3 m/s 745 mmHg 94%
    03:00 +9°C° 0.1 mm 2 m/s 744 mmHg 94%
    04:00 +9°C° 0 mm 2 m/s 744 mmHg 94%
    05:00 +8°C° 0 mm 3 m/s 744 mmHg 94%
    06:00 +8°C° 0 mm 3 m/s 744 mmHg 94%
    07:00 +8°C° 0 mm 4 m/s 744 mmHg 93%
    08:00 +8°C° 0 mm 4 m/s 744 mmHg 91%
    09:00 +8°C° 0 mm 5 m/s 744 mmHg 89%
    10:00 +8°C° 0.1 mm 5 m/s 744 mmHg 88%
    11:00 +8°C° 0.1 mm 6 m/s 744 mmHg 86%
    12:00 +8°C° 0.1 mm 6 m/s 744 mmHg 85%
    13:00 +8°C° 0.1 mm 6 m/s 744 mmHg 81%
    14:00 +8°C° 0.1 mm 6 m/s 744 mmHg 76%
    15:00 +7°C° 0.1 mm 6 m/s 744 mmHg 72%
    16:00 +5°C° 0 mm 6 m/s 745 mmHg 75%
    17:00 +5°C° 0 mm 5 m/s 746 mmHg 79%
    18:00 +4°C° 0 mm 4 m/s 746 mmHg 82%
    19:00 +3°C° 0 mm 4 m/s 747 mmHg 82%
    20:00 +3°C° 0 mm 4 m/s 748 mmHg 82%
    21:00 +3°C° 0 mm 4 m/s 748 mmHg 83%
    22:00 +1°C° 0 mm 4 m/s 749 mmHg 82%
    23:00 +1°C° 0 mm 4 m/s 749 mmHg 82%

    25 Octombrie, Vineri

    Timp Temperatura Precipitaţii Vânt Presiune Umiditate
    00:00 +2°C° 0 mm 3 m/s 750 mmHg 81%
    01:00 +1°C° 0 mm 3 m/s 750 mmHg 81%
    02:00 +1°C° 0 mm 3 m/s 751 mmHg 80%
    03:00 +1°C° 0 mm 3 m/s 751 mmHg 80%
    04:00 +1°C° 0 mm 3 m/s 751 mmHg 79%
    05:00 0°C° 0 mm 4 m/s 751 mmHg 77%
    06:00 0°C° 0 mm 4 m/s 751 mmHg 76%
    07:00 +1°C° 0 mm 5 m/s 751 mmHg 75%
    08:00 +2°C° 0 mm 6 m/s 751 mmHg 74%
    09:00 +3°C° 0 mm 7 m/s 752 mmHg 73%
    10:00 +3°C° 0.1 mm 7 m/s 751 mmHg 73%
    11:00 +3°C° 0.1 mm 7 m/s 751 mmHg 73%
    12:00 +4°C° 0.1 mm 7 m/s 751 mmHg 73%
    13:00 +4°C° 0.1 mm 6 m/s 750 mmHg 73%
    14:00 +4°C° 0.1 mm 6 m/s 750 mmHg 73%
    15:00 +5°C° 0.1 mm 5 m/s 749 mmHg 73%
    16:00 +4°C° 0.1 mm 4 m/s 749 mmHg 78%
    17:00 +3°C° 0.1 mm 3 m/s 748 mmHg 82%
    18:00 +3°C° 0.1 mm 2 m/s 748 mmHg 87%
    19:00 +3°C° 0 mm 2 m/s 747 mmHg 88%
    20:00 +2°C° 0 mm 2 m/s 747 mmHg 89%
    21:00 +2°C° 0 mm 2 m/s 747 mmHg 90%
    22:00 +2°C° 0 mm 2 m/s 747 mmHg 88%
    23:00 +1°C° 0 mm 3 m/s 746 mmHg 86%

    26 Octombrie, Sâmbătă

    Timp Temperatura Precipitaţii Vânt Presiune Umiditate
    00:00 0°C° 0 mm 3 m/s 746 mmHg 84%
    01:00 +1°C° 0 mm 3 m/s 746 mmHg 83%
    02:00 0°C° 0 mm 4 m/s 746 mmHg 82%
    03:00 0°C° 0 mm 4 m/s 746 mmHg 81%
    04:00 +1°C° 0 mm 5 m/s 746 mmHg 79%
    05:00 +1°C° 0 mm 6 m/s 746 mmHg 77%
    06:00 +2°C° 0 mm 7 m/s 746 mmHg 75%
    07:00 +2°C° 0.2 mm 7 m/s 746 mmHg 77%
    08:00 +2°C° 0.2 mm 8 m/s 746 mmHg 78%
    09:00 +2°C° 0.2 mm 9 m/s 746 mmHg 79%
    10:00 +3°C° 0.5 mm 9 m/s 746 mmHg 80%
    11:00 +5°C° 0.5 mm 9 m/s 746 mmHg 80%
    12:00 +5°C° 0.5 mm 9 m/s 747 mmHg 80%
    13:00 +5°C° 0.2 mm 9 m/s 747 mmHg 79%
    14:00 +5°C° 0.2 mm 9 m/s 748 mmHg 79%
    15:00 +5°C° 0.2 mm 9 m/s 748 mmHg 78%
    16:00 +5°C° 0.3 mm 9 m/s 749 mmHg 80%
    17:00 +5°C° 0.3 mm 8 m/s 750 mmHg 82%
    18:00 +5°C° 0.3 mm 7 m/s 752 mmHg 84%
    19:00 +4°C° 0 mm 6 m/s 753 mmHg 85%
    20:00 +5°C° 0 mm 5 m/s 754 mmHg 87%
    21:00 +5°C° 0 mm 4 m/s 755 mmHg 88%
    22:00 +4°C° 0 mm 4 m/s 756 mmHg 89%
    23:00 +4°C° 0 mm 3 m/s 756 mmHg 90%

    27 Octombrie, Duminică

    Timp Temperatura Precipitaţii Vânt Presiune Umiditate
    00:00 +4°C° 0 mm 3 m/s 757 mmHg 90%
    01:00 +3°C° 0 mm 3 m/s 758 mmHg 91%
    02:00 +4°C° 0 mm 2 m/s 758 mmHg 91%
    03:00 +4°C° 0 mm 2 m/s 759 mmHg 91%
    04:00 +4°C° 0 mm 2 m/s 759 mmHg 91%
    05:00 +3°C° 0 mm 2 m/s 760 mmHg 91%
    06:00 +3°C° 0 mm 2 m/s 760 mmHg 91%
    07:00 +4°C° 0 mm 2 m/s 761 mmHg 90%
    08:00 +4°C° 0 mm 2 m/s 761 mmHg 88%
    09:00 +5°C° 0 mm 2 m/s 762 mmHg 86%
    10:00 +6°C° 0 mm 2 m/s 762 mmHg 80%
    11:00 +7°C° 0 mm 2 m/s 762 mmHg 73%
    12:00 +8°C° 0 mm 2 m/s 763 mmHg 67%
    13:00 +8°C° 0 mm 2 m/s 763 mmHg 68%
    14:00 +9°C° 0 mm 1 m/s 763 mmHg 69%
    15:00 +9°C° 0 mm 1 m/s 763 mmHg 71%
    16:00 +8°C° 0 mm 1 m/s 763 mmHg 74%
    17:00 +6°C° 0 mm 1 m/s 763 mmHg 78%
    18:00 +5°C° 0 mm 1 m/s 763 mmHg 82%
    19:00 +4°C° 0 mm 1 m/s 763 mmHg 83%
    20:00 +4°C° 0 mm 1 m/s 764 mmHg 84%
    21:00 +3°C° 0 mm 1 m/s 764 mmHg 84%
    22:00 +3°C° 0 mm 1 m/s 764 mmHg 85%
    23:00 +3°C° 0 mm 1 m/s 764 mmHg 86%

    28 Octombrie, Luni

    Timp Temperatura Precipitaţii Vânt Presiune Umiditate
    00:00 +2°C° 0 mm 1 m/s 764 mmHg 87%
    01:00 +2°C° 0 mm 1 m/s 763 mmHg 87%
    02:00 +1°C° 0 mm 2 m/s 763 mmHg 88%
    03:00 +1°C° 0 mm 2 m/s 763 mmHg 88%
    04:00 +1°C° 0 mm 2 m/s 763 mmHg 88%
    05:00 +1°C° 0 mm 2 m/s 763 mmHg 87%
    06:00 +1°C° 0 mm 2 m/s 763 mmHg 87%
    07:00 +1°C° 0 mm 2 m/s 763 mmHg 83%
    08:00 +2°C° 0 mm 2 m/s 763 mmHg 79%
    09:00 +2°C° 0 mm 3 m/s 763 mmHg 75%
    10:00 +3°C° 0 mm 3 m/s 763 mmHg 73%
    11:00 +4°C° 0 mm 4 m/s 763 mmHg 70%
    12:00 +5°C° 0 mm 5 m/s 763 mmHg 68%
    13:00 +5°C° 0 mm 5 m/s 762 mmHg 68%
    14:00 +5°C° 0 mm 5 m/s 762 mmHg 69%
    15:00 +5°C° 0 mm 5 m/s 761 mmHg 70%
    16:00 +4°C° 0 mm 4 m/s 761 mmHg 72%
    17:00 +4°C° 0 mm 4 m/s 761 mmHg 74%
    18:00 +3°C° 0 mm 4 m/s 760 mmHg 76%
    19:00 +3°C° 0 mm 4 m/s 760 mmHg 77%
    20:00 +4°C° 0 mm 4 m/s 760 mmHg 77%
    21:00 +3°C° 0 mm 5 m/s 760 mmHg 78%
    22:00 +3°C° 0.1 mm 5 m/s 760 mmHg 80%
    23:00 +3°C° 0.1 mm 5 m/s 759 mmHg 82%
    Arată mai mult